GFSSW_con_3kmhel_126.txt.gz
Helicity
36 36 33 38 46 46 41 42 45 52 44 39 42 32 33 44 56 16 63 23 24 17 6 44 60 98 98 74 100 121 221 198 141 105 92 13 3 -80 -50 -18 -10 79 77 111 249
39 39 40 38 41 45 42 44 51 59 55 41 42 26 25 33 44 115 7 -4 -9 10 57 75 105 120 106 83 138 167 198 144 133 104 73 47 40 11 -3 -7 84 106 106 176 343
46 41 46 42 41 47 51 54 60 60 44 39 35 22 21 25 74 63 2 15 33 41 39 66 65 84 91 88 80 104 143 100 94 82 83 82 90 53 -8 28 -25 5 168 22 259
50 45 49 53 53 58 66 63 70 57 47 54 37 34 57 44 65 17 25 18 36 20 37 86 83 114 99 119 100 103 34 74 91 85 128 115 73 35 -6 -7 -63 -44 -47 22 53
56 57 56 56 64 67 69 64 66 61 54 48 46 62 61 83 98 58 23 25 21 43 53 72 111 117 104 70 59 54 34 34 20 24 54 45 61 80 -14 -43 -62 -93 -104 -31 10
92 71 68 63 71 78 71 63 64 63 56 49 52 71 50 88 78 59 43 44 50 57 71 79 75 75 67 75 83 80 34 16 -5 -11 2 17 14 42 23 -73 -74 -24 -90 -88 -11
102 110 84 68 79 85 72 68 79 64 56 43 42 47 53 75 85 38 29 31 37 42 51 99 84 93 84 79 94 89 74 27 23 58 56 72 50 66 14 2 6 -24 -30 -74 -59
159 125 138 87 91 72 77 87 86 54 27 11 35 53 59 81 52 36 42 42 47 52 36 47 75 83 74 62 95 72 101 104 69 85 68 85 95 33 18 21 20 37 -4 -27 -61
208 154 120 90 98 80 67 78 64 31 25 28 58 67 73 65 80 62 49 27 46 45 39 56 101 64 82 94 119 91 105 103 34 -10 60 81 114 65 91 65 71 42 71 92 6
286 286 182 104 110 93 97 94 46 61 44 41 52 77 66 57 56 78 32 36 30 36 85 160 121 108 109 129 113 78 84 62 76 17 13 68 108 90 114 113 103 89 52 55 116
349 298 126 96 132 131 93 78 100 75 83 77 67 78 65 59 77 36 16 54 54 75 94 97 119 117 115 92 105 107 105 76 33 22 25 68 88 92 100 113 86 78 57 68 8
339 311 73 103 154 155 63 103 93 66 77 53 61 66 58 95 100 82 28 53 51 57 71 119 80 79 103 131 124 121 131 103 71 95 142 94 93 90 84 59 62 90 41 39 19
294 249 32 83 154 129 64 66 67 82 76 54 48 67 81 96 97 74 37 15 35 67 77 58 38 94 95 82 90 77 123 178 176 105 85 81 54 29 4 44 -7 -4 36 5 43
225 154 17 126 106 97 61 52 67 62 116 81 65 69 87 82 89 36 16 18 36 50 36 37 107 102 76 85 93 168 132 155 118 116 166 89 164 96 51 7 -34 -19 -3 50 61
113 32 97 102 103 71 59 70 61 64 156 47 60 35 50 62 60 63 17 60 66 50 82 73 113 85 87 123 167 152 57 73 109 133 117 130 238 75 81 37 -36 -52 -14 85 59
83 81 150 97 61 70 55 71 69 121 139 75 56 42 78 46 45 83 85 80 34 71 86 94 93 101 141 180 89 19 80 90 121 200 295 362 195 92 123 -19 -53 -25 28 3 26
59 89 111 100 41 77 82 82 138 167 66 130 117 96 81 80 93 92 58 42 35 70 59 50 64 13 43 165 35 96 65 89 98 128 344 173 50 137 79 -10 8 40 26 29 44
113 109 88 60 88 83 92 115 181 109 165 106 138 97 66 100 130 128 87 70 66 75 70 82 109 75 123 78 124 65 92 157 232 156 201 142 3 2 18 -32 -44 59 63 -24 11
139 135 77 66 61 117 116 196 141 170 145 140 130 107 131 224 166 133 87 62 55 80 94 92 189 88 84 56 89 135 93 72 136 144 334 325 32 11 -28 7 1 -17 -15 56 292
166 150 126 84 136 125 133 116 94 135 138 126 156 119 204 188 162 112 75 69 70 90 92 105 144 115 75 48 42 92 39 24 65 81 194 -23 5 61 92 94 32 79 40 62 224
190 177 150 126 130 129 162 103 109 122 111 125 143 190 190 166 142 105 79 63 117 114 125 131 186 142 74 160 46 66 48 102 72 125 -44 -66 4 -38 43 -9 -26 1 25 198 75
198 273 135 119 183 103 113 128 146 75 104 99 128 161 148 142 117 98 82 80 81 135 136 85 147 146 131 98 -58 -13 -13 31 129 -26 -26 -80 -38 7 -31 -128 -94 119 223 274 312
205 220 152 143 231 142 152 161 152 67 57 87 120 131 125 115 102 61 83 75 88 90 143 116 130 129 75 10 38 89 155 81 24 69 6 -47 -43 -78 -95 -165 -93 -17 461 230 279
252 309 159 154 139 147 156 152 159 143 113 125 115 115 117 90 68 67 66 105 67 23 54 119 120 162 166 191 116 201 160 66 91 53 8 -21 -20 -89 -130 -116 -39 -128 54 223 195
267 178 107 172 137 134 163 131 108 131 132 98 94 75 74 74 69 79 82 59 11 46 86 103 96 80 76 125 90 90 4 38 -27 141 27 117 -19 -6 -45 -71 -60 -57 -66 125 160
183 192 188 137 144 132 129 144 126 98 100 80 92 110 94 78 65 45 58 60 72 82 104 85 62 37 32 92 38 52 -12 -8 -6 -33 180 108 -9 43 -2 -39 -16 -15 -2 24 101
260 193 156 165 131 143 122 127 125 140 159 125 92 89 66 52 20 24 55 99 131 121 132 83 75 27 -51 48 113 -36 -18 -20 -28 -42 -4 59 117 306 -24 27 1 -73 -44 -18 -28

GFSSW_con_3kmhel_132.txt.gz
Helicity
38 37 41 42 41 40 49 59 76 89 86 86 78 67 69 77 36 45 71 43 47 42 48 59 65 76 91 111 132 145 232 188 150 113 88 67 30 -3 -6 5 9 -16 33 36 27
31 38 43 43 47 40 46 54 61 80 91 88 80 66 62 56 46 87 49 48 37 27 57 82 83 79 93 100 120 168 179 91 92 92 82 73 49 39 -22 19 18 20 35 29 45
35 32 39 30 36 41 52 56 55 65 81 91 88 71 64 25 53 58 74 53 47 14 25 46 51 71 107 110 138 146 120 84 80 66 97 63 65 6 35 -3 58 73 59 102 108
43 45 31 42 32 32 52 64 56 55 63 81 85 87 50 43 99 26 22 29 21 19 24 55 71 90 92 115 126 136 86 109 73 68 59 77 54 62 50 63 47 32 44 50 34
60 54 42 38 34 34 39 57 71 59 52 53 59 66 32 73 55 65 61 53 49 39 48 54 74 74 94 100 103 94 88 72 53 61 50 69 64 83 52 25 18 -1 14 28 50
72 63 48 38 36 27 46 44 67 72 53 45 34 35 34 96 72 61 63 57 61 48 52 56 46 47 74 85 80 89 68 51 63 83 56 38 30 91 87 127 40 31 21 49 62
83 71 60 53 48 41 41 57 55 79 61 32 17 28 61 50 75 58 59 49 45 54 68 48 47 66 67 69 69 58 66 53 122 51 -8 -15 78 83 135 20 66 44 -13 -22 15
96 90 77 62 59 39 49 64 68 77 46 13 15 31 71 64 68 80 65 53 56 40 43 49 62 79 89 59 93 85 81 106 56 58 57 -24 34 178 1 21 -22 -12 10 -17 -28
115 101 95 86 67 57 41 57 63 45 46 33 54 57 81 126 103 83 72 76 71 65 95 91 95 106 104 66 96 120 84 62 30 88 105 27 41 32 48 18 45 43 44 23 3
137 140 117 91 103 103 87 85 54 44 52 55 79 102 141 93 79 88 67 62 85 77 101 135 135 127 114 95 98 64 42 43 59 50 97 81 105 77 37 59 57 68 105 93 69
163 143 129 128 130 142 116 143 146 146 152 124 148 156 103 87 77 87 66 49 89 149 137 152 178 135 95 76 54 41 54 58 69 56 62 30 74 106 104 74 134 182 209 195 156
218 179 157 157 172 138 121 162 190 145 163 63 85 105 102 109 99 68 80 97 119 135 127 159 152 111 86 88 88 76 56 59 -16 38 51 49 88 90 75 168 106 83 96 119 112
287 220 174 199 191 162 171 145 122 73 150 104 40 92 89 110 94 79 101 119 123 131 116 115 88 90 82 98 79 51 37 45 51 55 34 44 76 93 117 83 29 27 72 180 212
342 290 218 254 244 206 208 194 105 43 181 167 154 108 145 143 133 113 106 118 131 123 86 100 82 107 95 76 43 39 23 41 65 95 107 130 111 120 71 49 41 11 22 84 151
412 319 301 304 248 268 196 96 45 126 173 103 186 123 142 143 162 201 109 127 119 117 105 105 97 103 93 36 39 1 45 63 53 93 212 133 148 172 124 55 62 -35 -10 41 75
484 378 407 366 373 226 160 111 138 267 218 131 143 198 221 149 208 219 159 131 89 109 143 118 72 73 36 35 -7 28 50 33 174 160 180 72 65 215 68 85 48 -106 94 -7 22
550 441 445 352 400 174 153 195 359 304 171 187 179 169 176 196 210 186 168 138 119 133 152 128 104 78 46 23 1 49 37 67 97 90 112 131 95 152 63 41 -43 -139 -171 -1 65
581 356 533 377 306 177 229 491 337 171 314 163 183 245 198 209 226 168 147 116 104 119 114 106 95 72 60 31 29 22 38 97 108 122 154 33 65 102 72 22 -94 -141 -130 70 113
633 666 728 530 343 234 458 530 277 275 221 279 314 344 326 239 147 169 143 88 82 67 109 95 83 44 30 35 48 48 138 82 157 64 93 133 130 172 30 -76 -55 -142 -68 -55 66
917 674 605 568 206 408 473 243 351 326 247 303 350 267 333 223 196 142 101 78 108 73 52 45 85 26 22 26 44 111 66 188 122 193 144 135 50 114 -75 -17 -37 -83 -57 -76 52
887 711 456 146 181 395 379 283 367 293 246 338 320 327 219 176 150 151 98 126 106 80 69 40 66 41 44 41 109 123 188 139 124 81 68 125 158 41 -128 -97 -32 -56 -75 -39 5
1005 865 329 185 542 423 403 358 313 335 321 250 230 256 211 214 201 174 124 107 99 60 68 38 54 53 45 75 116 85 130 100 179 108 114 159 162 -59 -126 -22 -15 -26 -32 -27 -1
903 985 532 401 449 305 413 384 336 372 331 293 260 186 178 200 176 154 176 188 133 89 57 12 64 58 41 89 112 84 92 59 70 70 110 86 139 11 -57 46 41 -52 -149 -61 33
1017 860 609 399 411 332 473 517 486 331 318 174 184 201 247 224 215 123 181 147 117 80 80 60 70 68 59 70 168 152 115 67 49 75 64 68 -19 40 66 110 8 -24 -48 -102 6
889 703 744 503 503 428 479 456 448 403 282 161 210 164 204 223 196 158 173 132 124 73 85 83 61 63 58 86 159 149 62 50 58 27 59 43 -3 -18 -17 81 30 -2 -30 -55 -67
722 594 817 418 365 434 409 390 358 429 292 249 147 157 149 154 129 104 120 112 99 102 100 77 60 62 53 96 154 167 64 45 -4 50 7 -6 -55 22 -6 -25 69 34 -2 -33 -28
359 405 434 469 448 401 471 386 311 240 279 130 127 150 163 95 91 69 76 62 62 79 80 78 69 65 53 126 209 187 72 15 22 35 -21 -7 -3 32 14 18 17 -1 -15 -31 -30

GFSSW_con_3kmhel_135.txt.gz
Helicity
34 34 39 45 49 47 51 51 60 54 40 49 57 71 88 99 55 39 82 56 52 55 45 46 67 51 50 81 94 93 145 113 106 85 69 61 46 8 -8 8 51 2 25 67 95
28 28 33 42 42 41 48 51 52 58 62 56 53 56 79 84 57 87 38 41 65 57 82 91 77 65 78 77 91 112 102 81 74 81 81 45 41 44 4 61 77 58 80 66 131
29 31 31 35 42 39 40 40 46 46 57 66 69 65 65 43 63 50 44 49 60 57 52 39 40 57 88 93 112 88 90 75 85 88 96 59 32 33 39 36 58 90 93 131 144
39 36 42 38 45 46 42 42 41 51 51 65 75 68 56 50 94 40 35 45 33 26 38 55 74 97 119 120 91 85 81 84 77 63 56 56 57 51 36 44 52 43 53 49 98
70 51 45 39 43 43 40 45 47 50 47 53 66 74 56 95 63 53 75 70 51 42 70 74 95 98 122 90 88 84 91 81 63 55 76 60 53 57 23 99 63 41 29 27 32
100 79 54 47 47 49 41 45 37 41 54 51 49 62 68 96 54 66 54 57 65 67 65 66 70 66 94 94 103 91 74 64 89 90 76 78 29 65 76 97 82 48 33 11 5
115 93 79 52 56 44 31 38 32 32 47 38 36 63 88 58 78 71 80 66 53 58 71 62 53 75 72 97 94 94 84 84 52 58 33 32 40 41 159 42 20 22 33 24 23
119 94 115 76 64 45 25 35 28 47 23 28 35 55 64 74 77 88 89 91 83 74 74 65 67 81 91 84 108 103 85 105 73 63 25 21 26 66 41 45 31 51 56 65 71
147 122 116 87 76 51 48 43 47 45 33 50 54 66 78 108 107 130 119 126 93 95 107 101 92 106 98 108 117 150 110 85 55 25 1 54 19 62 29 23 25 64 106 138 137
179 163 138 88 86 61 62 73 61 74 76 83 111 101 130 114 111 85 81 113 116 103 120 134 130 133 129 122 141 108 84 57 44 33 47 27 56 34 26 -24 -61 -32 26 90 146
197 183 135 96 93 85 121 125 111 90 122 119 129 145 137 109 87 88 86 83 109 166 136 147 152 168 147 123 96 90 70 47 30 -0 13 22 63 4 -65 -105 -83 -9 18 17 41
224 199 181 143 103 148 146 159 153 132 87 95 135 167 127 107 170 92 71 112 144 181 164 181 168 118 135 134 118 93 75 48 9 24 52 12 57 41 -172 -20 57 51 45 35 45
315 274 193 174 181 230 154 135 126 131 103 87 131 178 175 132 153 110 108 112 140 184 162 160 143 145 134 132 134 87 53 44 31 33 7 -2 12 15 -36 111 71 10 39 38 56
358 319 311 261 275 257 226 140 122 133 78 61 114 153 202 161 188 140 148 142 166 178 161 164 145 149 137 124 89 70 26 34 17 45 46 70 20 4 90 150 30 65 65 63 45
377 430 494 408 333 323 180 177 165 136 191 113 179 128 181 185 218 268 176 183 183 175 141 170 132 130 139 100 62 31 41 9 27 29 71 -5 27 42 43 69 63 64 56 -26 -70
292 498 541 535 517 292 200 218 245 248 239 182 187 193 238 261 315 295 225 193 174 179 184 168 120 133 128 90 57 62 40 32 76 77 19 38 102 39 41 68 62 11 -75 -93 56
423 609 519 492 392 392 320 416 507 474 245 227 232 175 214 330 361 318 294 249 204 229 177 165 146 142 129 102 63 67 27 30 34 33 73 82 118 31 32 66 19 -76 -54 -54 32
728 594 511 607 442 597 649 730 700 222 412 287 231 240 245 314 355 305 278 262 200 170 161 138 119 133 113 73 55 40 19 48 59 47 79 49 116 37 67 46 -33 -53 -78 -77 -6
722 718 592 494 390 619 686 643 337 287 279 367 380 281 340 375 327 276 240 188 134 97 145 133 155 139 93 58 36 56 57 55 57 38 93 74 88 21 6 -32 -66 -33 -92 -150 -33
872 696 481 396 480 529 750 581 409 341 394 387 419 325 438 387 328 260 209 142 141 123 117 144 166 120 101 54 44 46 57 74 72 90 104 119 90 87 25 -76 -2 -16 -87 -112 -59
979 649 482 522 406 667 626 536 516 404 376 475 440 433 352 391 288 280 211 175 132 131 100 97 118 128 92 63 48 77 85 100 83 137 138 125 129 119 -10 -51 12 -13 -37 -132 -113
876 465 447 517 526 617 657 455 542 622 402 372 364 387 326 309 346 323 259 165 99 106 100 81 92 94 65 77 69 83 108 111 139 174 114 125 122 123 -22 -13 7 -25 -74 -26 -22
905 574 511 816 610 661 478 413 444 642 329 403 397 367 344 329 327 334 283 182 150 127 56 56 95 108 106 121 112 97 129 143 119 136 125 155 85 25 5 32 -13 -58 -55 -47 -34
924 621 658 493 588 511 367 555 616 449 386 293 326 336 369 348 318 297 266 204 191 130 122 81 74 70 78 105 120 101 113 137 155 180 148 102 25 16 3 19 19 -12 -29 -42 -48
787 663 812 402 427 404 494 520 591 575 360 292 404 316 301 364 354 270 255 273 210 153 156 85 65 66 42 33 75 62 40 121 143 99 129 106 47 44 -1 -20 -3 -56 -23 -33 -64
657 744 739 529 644 411 558 453 404 362 410 468 333 290 277 233 186 190 240 203 149 148 134 95 73 69 72 45 39 50 57 95 69 49 54 66 35 62 -22 -29 13 -1 -36 -17 -20
779 754 879 486 539 571 492 457 415 417 386 227 267 323 241 189 159 142 180 177 87 130 121 83 85 78 85 79 66 59 82 100 76 42 75 71 48 18 17 2 -5 -8 -20 -26 -15

GFSSW_con_3kmhel_138.txt.gz
Helicity
21 16 19 25 29 26 31 39 36 38 43 58 61 60 62 63 8 18 78 74 51 33 9 14 38 43 40 83 79 66 70 66 94 81 128 80 80 64 50 27 63 71 75 89 80
21 19 21 27 27 27 24 26 28 36 49 52 58 62 66 65 27 58 69 52 50 47 53 64 58 41 70 86 75 58 73 141 152 129 94 65 61 67 53 66 61 73 74 70 81
30 29 25 30 30 29 27 25 28 34 45 62 62 62 66 34 29 77 65 35 19 25 67 74 55 49 72 64 76 89 102 133 121 125 86 54 59 60 52 52 76 57 71 66 82
47 35 31 25 28 30 33 26 26 34 44 48 58 64 53 40 94 72 35 23 20 21 40 54 53 62 68 63 75 64 102 91 106 95 70 57 50 57 38 33 52 32 30 36 54
69 62 42 31 27 25 31 27 28 37 50 61 58 68 49 62 91 94 59 46 35 41 65 86 99 96 89 101 86 72 95 79 73 64 60 51 40 34 3 16 53 30 31 37 25
87 75 69 50 39 28 36 39 34 39 59 65 56 52 68 76 96 84 61 46 54 60 72 66 98 100 113 108 93 103 73 58 56 77 58 47 38 22 34 66 38 38 30 26 40
114 101 83 76 38 30 31 45 43 43 57 54 38 53 77 106 91 77 66 64 78 83 81 81 83 79 94 102 103 86 71 57 62 76 67 51 10 15 81 41 31 25 31 40 62
121 108 110 93 65 54 45 38 45 51 50 50 35 42 85 96 75 68 67 70 81 88 94 100 83 112 124 103 87 69 63 91 94 67 79 51 52 84 50 23 4 25 46 78 96
135 137 132 106 98 66 52 64 59 65 48 61 56 55 87 114 82 106 94 100 125 123 112 98 88 123 84 91 89 95 119 91 76 57 58 39 49 48 14 16 29 69 85 95 85
183 172 144 122 100 75 75 88 87 85 84 75 78 68 110 87 81 72 85 87 100 104 105 93 94 87 95 92 129 200 96 84 65 76 59 27 26 51 -16 27 47 73 41 31 38
232 201 171 136 109 119 129 123 101 93 114 105 121 104 128 137 96 78 75 76 95 90 100 112 95 112 175 156 171 153 102 80 68 80 47 33 25 7 -2 31 67 47 39 35 30
146 229 196 192 163 177 171 188 146 200 85 56 97 132 176 146 155 95 67 81 96 120 124 118 131 159 147 147 139 114 100 93 41 39 45 23 22 3 55 31 -0 57 75 112 116
130 168 200 200 229 268 194 103 115 123 117 80 83 110 186 163 130 130 82 121 108 127 110 151 237 133 138 142 125 100 85 98 58 42 -7 24 -12 46 74 31 57 99 112 123 131
92 216 352 381 283 284 267 112 81 108 134 61 94 142 210 168 164 181 112 137 168 203 161 208 158 145 131 140 125 106 100 70 46 50 67 73 55 92 66 97 68 80 107 100 83
98 254 455 281 100 234 235 283 188 168 266 184 247 143 162 221 235 237 180 170 171 190 177 252 155 163 160 162 107 145 70 44 35 32 50 64 18 103 125 93 91 81 59 55 29
125 131 419 273 274 296 330 506 383 468 550 244 251 198 188 190 257 262 224 233 210 239 244 231 165 142 180 130 98 73 43 36 41 41 21 118 49 19 152 96 103 59 36 54 -0
125 115 365 296 145 345 336 506 456 517 265 161 265 172 130 174 241 214 234 243 242 280 268 217 193 142 140 107 76 68 53 50 13 13 69 143 56 53 158 87 60 6 48 19 -30
140 158 352 341 250 472 327 619 296 212 402 184 174 196 231 215 223 238 204 249 241 275 243 226 221 154 127 147 124 106 100 108 83 81 97 78 72 162 191 110 62 40 21 -16 -56
142 255 437 381 268 454 567 274 207 268 357 374 278 239 301 215 249 229 170 169 250 204 256 254 313 169 159 117 92 102 92 101 84 56 61 93 51 63 188 71 40 14 -14 -38 -31
201 407 399 486 443 521 422 103 167 344 239 249 391 320 230 177 255 247 213 215 276 205 168 217 292 138 137 100 107 113 101 52 47 73 75 85 43 145 77 53 26 8 -19 -59 -54
308 456 368 507 582 527 391 127 212 240 291 343 325 255 150 258 243 238 180 214 196 216 146 183 229 174 157 106 106 113 90 72 80 80 98 82 127 160 89 42 17 13 -18 -58 -62
393 427 340 694 598 458 382 343 330 258 349 426 336 366 205 246 316 370 297 263 118 110 186 169 222 213 140 135 124 109 91 79 68 103 78 91 55 207 116 72 49 29 -5 -43 -44
561 601 338 522 434 384 334 257 292 381 391 405 411 371 268 274 403 316 330 223 116 110 138 124 221 289 190 151 129 82 83 85 103 121 76 98 102 67 87 45 33 8 -13 -26 -37
840 814 703 489 459 246 307 264 295 383 406 461 519 445 443 366 297 282 378 312 151 147 146 134 178 242 210 211 127 109 92 92 115 122 68 78 76 42 72 15 12 8 -21 -26 -32
958 755 812 591 376 300 257 237 366 445 433 479 562 325 449 480 354 344 404 335 228 170 151 152 244 139 101 106 90 69 72 84 109 75 140 68 72 78 64 18 2 -6 -45 -33 -39
908 808 583 323 481 469 407 338 264 329 437 433 496 357 429 293 313 283 302 268 292 207 165 172 219 82 100 71 50 32 27 59 52 41 40 52 46 184 45 44 19 1 -16 -25 -21
648 619 749 445 483 507 454 356 347 407 501 415 420 506 328 270 213 121 132 146 118 152 199 167 131 106 136 87 90 60 -3 59 107 70 73 106 115 57 21 26 20 15 -36 -32 -34

GFSSW_con_3kmhel_141.txt.gz
Helicity
16 14 14 9 10 17 12 18 28 36 38 42 46 51 57 56 12 8 29 92 53 37 9 -8 -2 11 5 28 14 13 18 12 8 84 72 122 92 41 80 32 67 86 88 105 81
25 22 19 19 20 15 14 16 22 30 32 35 41 50 49 48 5 7 89 62 42 42 13 28 35 23 -2 24 40 15 35 23 169 264 139 132 77 79 77 62 31 80 100 60 75
33 29 27 29 24 23 27 26 28 33 38 38 42 46 54 29 1 104 86 44 17 -12 7 32 34 26 18 58 46 48 40 119 136 151 67 73 66 105 60 50 94 85 67 55 46
54 40 34 33 23 23 29 28 28 40 50 41 48 53 59 24 125 132 48 19 7 -3 14 19 19 19 25 49 71 50 77 108 130 78 61 76 71 59 32 52 64 50 28 24 42
80 71 47 34 33 28 26 32 31 42 49 51 58 64 53 44 71 130 61 29 5 23 35 36 26 44 29 78 107 46 107 73 70 50 54 55 46 48 32 46 78 43 29 47 49
80 94 75 59 49 41 42 42 49 45 46 53 58 65 28 32 149 99 57 43 34 32 42 40 74 86 111 78 65 176 78 52 55 56 49 45 29 22 13 55 44 34 47 46 47
106 84 79 78 64 55 58 51 53 68 56 46 63 59 37 34 106 75 57 47 66 58 42 65 64 51 118 76 86 72 53 38 46 74 54 65 -6 2 74 76 31 35 48 44 65
118 108 104 69 75 66 51 73 72 72 63 49 64 39 56 167 78 76 76 73 63 61 61 87 72 96 81 138 58 53 55 28 166 102 114 44 39 116 61 30 35 49 46 82 95
156 125 130 101 84 75 76 81 76 74 62 50 57 54 33 195 93 70 69 89 79 80 100 95 86 101 75 52 45 64 32 71 95 123 78 38 73 51 46 40 47 64 91 78 75
134 132 167 166 85 72 78 87 78 72 33 49 67 84 61 66 84 64 44 75 59 60 66 60 71 62 52 59 42 111 117 113 81 93 118 23 36 60 46 57 85 90 77 56 49
150 177 172 138 161 128 94 116 84 52 103 101 81 108 131 105 117 77 80 73 54 40 22 37 58 51 64 198 154 111 130 85 70 163 73 65 47 42 58 110 108 83 114 106 85
85 134 179 152 195 196 142 151 335 291 194 63 49 95 188 118 72 99 103 95 94 52 73 115 53 173 257 160 103 97 91 64 127 81 73 37 21 48 142 76 81 127 92 84 90
141 74 128 215 232 243 154 120 320 363 266 194 80 81 145 143 85 105 110 70 95 59 112 43 244 270 139 122 119 90 138 150 104 70 19 41 2 98 34 38 83 104 114 105 185
150 133 176 332 128 124 193 164 265 325 250 132 147 165 116 167 119 59 126 97 134 97 79 74 269 177 136 139 123 102 201 100 78 83 110 95 105 35 152 98 174 121 122 109 75
123 145 258 233 137 85 91 144 283 262 178 193 200 121 96 213 198 123 147 117 101 141 163 109 190 129 139 199 138 268 124 78 54 57 64 16 101 41 88 337 252 181 71 23 60
102 111 75 335 273 174 123 128 217 213 178 217 161 140 158 93 209 225 173 107 52 131 79 138 202 129 146 213 123 133 73 40 39 45 94 50 152 62 227 339 234 125 8 32 78
81 103 80 222 251 139 172 252 157 351 221 217 196 117 44 128 170 194 140 177 274 193 150 221 163 224 214 138 113 86 86 137 102 99 86 172 103 52 251 291 155 82 10 56 51
75 108 97 216 213 250 302 252 132 159 168 171 102 60 53 131 167 104 144 149 55 115 156 152 198 169 147 156 213 154 122 219 252 187 164 117 130 159 231 224 177 83 36 46 12
76 117 219 274 294 335 306 329 177 86 203 269 194 146 131 243 241 145 132 101 100 143 154 190 217 322 155 158 128 187 137 193 168 87 136 74 98 18 220 268 181 53 17 27 12
192 174 215 289 312 308 311 290 173 133 112 102 103 120 175 159 238 197 178 128 145 127 201 254 346 227 205 132 145 173 197 140 119 178 162 117 113 165 318 208 121 47 9 24 17
159 215 127 200 414 345 300 244 219 182 113 127 117 120 136 154 175 164 217 240 194 168 162 253 265 220 233 184 170 200 133 123 171 151 187 156 143 155 179 143 92 30 25 37 24
220 253 109 283 405 356 266 291 214 101 51 132 205 201 205 199 206 189 242 195 186 152 186 228 199 275 86 231 179 105 107 92 169 140 93 105 86 170 132 150 104 20 18 38 27
290 273 146 266 317 312 209 205 168 132 72 89 150 81 132 130 311 197 83 132 148 125 270 194 278 374 317 206 196 167 114 79 99 116 89 104 90 31 111 154 56 38 21 22 11
280 346 349 319 209 201 163 216 229 160 133 122 62 118 126 233 309 296 135 254 153 124 272 186 290 313 192 268 259 174 96 83 115 131 66 44 46 64 155 88 49 37 14 27 -2
436 357 384 467 336 206 168 161 162 271 212 128 143 135 212 268 161 158 228 324 206 330 146 195 284 224 278 267 226 145 114 69 112 62 83 50 73 92 118 101 57 42 30 36 28
486 434 306 272 236 458 208 174 131 185 232 207 255 146 119 239 200 144 387 408 550 292 207 185 312 250 235 186 167 160 81 71 57 36 36 20 8 171 98 102 74 51 40 34 27
471 273 275 341 233 303 310 211 183 172 98 123 148 130 118 128 212 259 116 197 191 166 173 209 243 225 192 190 170 187 41 60 109 64 48 31 52 46 52 83 80 51 50 34 30

GFSSW_con_3kmhel_144.txt.gz
Helicity
30 28 28 28 27 31 34 29 27 24 22 29 36 49 60 54 49 17 21 72 51 36 12 -15 -14 -6 -8 -13 -5 -17 22 13 -27 85 137 170 185 103 84 8 4 36 128 171 85
35 34 36 38 38 39 36 33 35 27 23 22 28 37 42 48 11 -20 105 66 68 39 28 20 9 27 1 -1 23 16 15 -4 92 141 179 182 118 61 91 44 -4 63 158 128 56
32 37 38 48 55 52 46 42 43 36 32 26 21 27 31 29 10 72 91 89 47 3 -19 -13 -9 -4 5 -19 16 13 22 11 97 75 121 138 92 177 57 57 81 128 147 85 35
57 53 48 48 45 45 56 52 42 44 38 34 23 15 29 27 101 93 71 51 9 -3 -2 1 12 7 15 21 5 31 15 51 127 100 98 109 109 65 42 84 117 136 59 29 72
88 81 79 57 58 59 51 60 53 46 43 47 49 44 49 32 45 105 80 35 16 8 20 34 32 18 22 22 28 72 31 71 74 69 45 58 39 37 31 95 133 93 47 60 64
91 88 79 68 61 64 61 67 64 61 57 53 62 88 42 53 125 106 65 58 28 28 21 36 55 89 51 68 85 79 127 77 45 40 71 41 12 17 16 104 69 48 54 63 45
102 93 95 86 81 78 66 68 58 62 54 59 71 58 54 14 84 111 67 53 48 54 36 40 54 47 103 45 63 62 44 25 25 41 98 61 21 42 75 76 33 58 73 61 94
98 92 93 85 86 76 94 62 59 51 59 55 66 52 54 51 91 75 53 46 57 60 46 78 47 41 67 79 77 42 29 31 26 206 175 55 24 72 50 50 57 64 53 99 95
105 92 113 135 119 107 83 67 60 65 62 53 52 32 8 131 69 33 45 54 88 63 66 80 49 56 76 55 46 43 21 22 101 115 136 59 50 41 34 85 75 82 124 119 135
175 116 134 119 116 116 103 116 70 100 43 38 59 102 41 53 61 25 61 29 104 50 57 54 53 59 66 39 25 65 85 9 83 62 77 83 34 12 49 69 144 157 156 210 193
156 145 135 140 128 155 133 52 107 115 134 107 76 79 111 33 143 59 80 84 75 87 35 52 53 42 5 57 44 61 103 179 89 81 182 102 85 18 37 146 167 237 297 243 275
174 182 110 144 129 164 155 103 133 169 111 68 42 61 70 86 101 61 107 73 93 63 44 58 38 2 71 206 183 113 70 95 73 115 184 49 34 19 120 198 224 338 271 302 140
150 180 171 154 249 180 171 143 125 147 90 69 94 72 84 84 96 73 103 34 62 45 24 38 64 156 157 125 105 71 53 81 183 172 97 43 11 10 225 121 206 316 391 229 82
133 137 143 254 240 192 157 123 100 112 78 51 15 77 114 119 109 39 163 69 55 55 34 64 9 140 142 123 101 59 169 279 114 110 120 145 127 42 148 119 282 400 463 174 60
139 121 43 78 169 176 121 41 46 99 208 173 61 125 110 180 276 25 38 160 54 69 101 77 101 204 82 64 115 116 195 141 95 91 90 82 128 44 61 205 288 421 353 154 74
151 123 5 144 196 180 133 90 190 193 295 192 207 200 173 85 168 162 9 128 54 75 85 101 138 182 74 109 239 164 105 91 56 67 143 50 78 42 136 286 371 379 279 126 50
130 136 93 154 174 108 89 151 271 331 276 225 279 158 58 80 68 106 149 182 185 146 116 101 161 189 209 229 174 123 124 159 141 134 86 196 184 92 214 247 247 210 156 111 41
104 107 91 122 135 124 201 293 327 236 237 183 165 134 104 116 54 111 167 128 86 137 146 143 185 121 220 135 107 82 85 173 248 175 121 89 197 164 239 278 340 347 212 75 49
96 117 152 160 168 220 278 355 333 249 170 192 148 118 44 92 199 131 126 78 85 139 205 117 121 79 167 48 160 185 204 204 228 97 190 149 98 133 212 313 311 270 126 22 36
135 154 121 171 205 241 260 243 192 154 121 215 256 133 146 160 113 120 164 135 97 104 74 174 266 245 299 260 92 215 167 216 212 248 193 126 13 214 319 403 317 131 45 11 10
130 221 160 188 265 249 295 263 218 185 109 168 183 193 97 112 131 243 245 208 62 75 118 181 338 228 278 213 146 226 263 229 206 207 254 246 185 114 211 273 133 87 11 9 15
156 247 128 274 337 377 298 238 102 132 139 156 162 141 144 141 123 148 141 150 180 57 251 233 376 303 157 58 28 107 172 169 276 193 243 265 244 205 273 197 138 64 14 11 43
228 227 139 234 344 308 214 117 114 112 145 155 230 173 181 158 265 201 169 119 168 257 369 311 300 253 174 185 231 284 180 122 123 197 264 180 170 184 162 153 93 47 25 21 43
204 294 328 296 173 167 156 153 120 106 115 112 94 119 90 153 187 163 193 203 252 156 404 212 230 183 208 166 135 194 145 144 148 260 164 154 94 18 116 106 77 40 8 34 37
218 187 353 570 304 162 133 142 102 104 90 128 99 101 150 151 137 56 164 273 303 335 357 264 216 183 219 258 168 124 102 107 202 213 229 143 205 210 162 61 34 42 31 55 41
297 292 101 191 157 167 144 116 108 79 96 62 101 133 101 173 180 140 256 388 410 297 183 298 271 221 272 216 206 151 109 165 155 146 97 53 62 160 135 79 69 58 55 53 47
272 183 235 158 165 224 175 111 97 89 92 76 63 88 106 159 102 76 127 218 430 436 332 378 292 320 324 162 118 118 181 178 194 151 130 114 90 96 69 46 55 47 46 41 47

GFSSW_con_3kmhel_147.txt.gz
Helicity
35 33 35 41 43 44 48 45 37 32 29 35 44 42 42 40 34 10 25 34 32 16 11 36 59 42 21 46 10 24 79 59 123 49 102 191 234 129 25 39 70 122 174 137 90
38 38 39 43 52 44 48 47 42 35 34 32 42 50 53 39 -2 26 67 74 40 37 31 48 99 90 32 28 16 74 69 153 63 18 101 165 167 129 104 64 179 133 222 182 128
47 42 42 44 51 59 60 57 46 49 41 40 52 57 58 34 26 30 33 47 27 26 10 21 30 46 31 36 -3 27 61 82 20 46 40 77 109 94 91 140 200 127 98 78 112
54 56 54 49 52 54 58 62 60 60 52 63 65 74 116 23 51 38 18 15 19 30 30 52 53 66 63 71 16 58 30 44 39 45 17 23 65 103 116 148 119 126 68 89 87
67 66 61 58 72 74 70 60 53 53 63 77 76 89 59 49 22 46 41 34 29 25 52 63 64 87 68 40 54 92 88 46 76 64 -8 50 68 72 79 96 97 63 78 79 76
63 83 70 65 75 84 67 61 66 70 63 65 78 94 45 39 67 82 31 44 33 54 41 53 78 74 28 41 59 102 107 90 116 70 49 48 56 66 85 130 113 49 61 65 143
89 76 61 55 75 64 64 73 82 74 59 61 71 44 54 61 53 87 53 48 39 64 50 59 78 104 112 97 60 61 46 65 28 52 117 85 122 56 72 88 26 89 86 155 247
127 101 97 83 81 82 69 61 81 85 77 56 63 59 40 41 74 47 97 61 44 61 55 56 65 70 82 62 68 72 73 78 75 69 166 139 84 51 27 59 90 99 142 277 340
159 169 121 96 70 67 78 71 79 88 75 58 62 48 17 40 43 11 76 55 58 57 56 59 73 67 116 90 84 76 55 52 93 140 267 154 5 110 26 79 149 214 350 466 413
169 153 139 135 93 89 83 96 72 106 64 41 78 102 49 56 45 27 9 29 40 99 38 60 65 87 96 108 64 63 112 42 139 133 161 103 55 32 45 107 194 401 551 526 402
166 171 171 119 146 152 82 147 139 114 135 154 45 84 92 38 67 86 67 73 77 101 68 56 98 70 39 43 68 70 69 80 133 89 168 160 133 56 26 128 386 600 649 577 385
156 160 172 141 133 206 186 189 115 195 130 82 39 62 20 34 87 125 114 109 86 70 54 59 80 40 44 115 118 98 60 52 73 95 133 185 175 53 88 246 560 668 650 448 331
145 139 172 137 170 230 215 172 140 80 118 90 109 104 135 80 73 189 136 138 97 75 35 74 31 97 71 134 97 120 78 55 57 84 145 109 103 43 126 522 679 652 566 382 231
134 154 114 126 156 178 227 147 76 7 129 48 65 108 156 209 145 88 170 196 145 70 33 60 6 66 125 129 118 121 124 179 183 123 94 122 128 90 275 591 648 636 607 402 270
141 113 59 101 170 142 118 118 79 127 276 152 123 73 106 195 266 78 231 235 182 125 139 139 92 112 192 137 118 165 220 179 157 141 118 104 133 138 175 627 656 634 508 335 218
140 114 60 163 187 191 135 104 151 260 344 285 160 125 106 88 139 297 119 143 187 110 75 118 87 142 216 171 163 252 255 123 106 139 182 129 161 100 91 633 707 547 335 230 156
109 132 119 132 164 143 160 216 257 378 260 298 331 174 110 144 32 113 187 161 314 203 126 116 79 165 205 249 301 282 229 191 224 260 201 76 103 98 252 511 541 412 209 152 70
104 111 132 139 138 164 256 284 357 282 230 260 224 248 119 108 114 140 151 133 183 221 159 163 206 210 344 309 256 167 212 254 192 233 160 75 199 219 226 227 207 152 64 33 46
90 146 160 143 149 224 288 346 364 277 214 189 204 370 300 153 181 178 108 132 196 256 241 149 145 197 230 286 199 170 220 109 187 121 176 221 269 203 286 365 348 226 150 101 23
192 182 148 163 172 235 273 307 296 237 278 207 96 207 205 199 188 207 219 176 181 219 117 175 223 149 245 282 146 160 236 284 297 216 217 221 192 262 495 424 314 186 81 50 -3
149 233 161 225 262 294 300 373 216 141 210 223 202 166 211 196 112 206 202 270 99 135 107 105 253 238 304 341 344 241 248 308 242 257 251 266 313 219 379 338 217 147 64 -24 -8
202 281 140 282 308 387 308 222 182 141 96 157 212 210 160 127 250 160 203 228 245 127 131 217 281 218 158 165 105 202 204 273 354 267 218 256 328 207 251 214 110 57 24 -1 -3
227 190 188 238 310 367 317 208 173 168 152 185 179 140 148 175 189 143 249 173 212 211 147 269 306 316 313 286 271 291 221 183 211 217 249 313 301 230 270 191 135 113 41 -14 2
186 266 252 291 300 226 273 252 208 139 114 122 185 143 118 153 127 172 184 268 277 286 299 320 358 368 270 334 223 208 152 153 165 215 256 221 291 308 289 232 137 65 -4 22 36
237 230 140 339 321 300 260 229 183 168 150 142 159 139 175 189 180 187 175 170 300 309 403 328 309 344 330 378 257 158 158 141 163 233 230 141 263 266 171 124 71 33 18 55 48
215 292 146 120 260 243 222 215 194 110 169 110 123 68 98 118 147 115 161 205 272 331 367 287 278 275 191 227 217 185 114 132 56 160 193 217 212 172 87 84 70 45 13 32 34
165 173 160 133 128 214 195 148 146 122 112 126 122 103 88 78 87 77 99 188 194 299 417 459 491 408 239 165 171 104 209 225 189 179 202 229 279 282 164 98 35 30 57 38 45

GFSSW_con_3kmhel_153.txt.gz
Helicity
31 30 27 27 41 35 36 46 40 49 55 51 50 64 58 60 51 10 20 17 28 23 20 29 48 62 44 74 104 91 118 132 142 153 169 123 100 120 117 150 146 174 214 264 295
35 39 36 37 44 39 46 43 45 47 56 70 68 70 78 57 43 25 0 13 21 47 67 90 77 75 76 109 109 111 131 124 151 146 147 104 100 80 81 129 181 239 340 432 425
49 57 53 51 53 58 56 56 60 61 63 74 80 80 86 13 36 39 13 -3 9 38 34 48 50 64 83 83 105 84 75 131 152 102 146 197 156 72 117 109 89 139 297 356 406
52 64 62 71 69 69 64 75 73 66 74 88 89 90 66 2 72 19 23 19 29 32 51 78 79 98 130 130 95 56 51 97 102 103 108 145 114 135 112 95 157 322 289 326 376
81 68 65 64 69 76 71 71 74 87 77 85 94 111 19 44 15 36 46 31 30 40 71 95 120 99 103 96 94 64 83 96 76 57 55 94 67 67 103 159 348 375 369 336 281
98 82 76 69 72 70 66 67 77 86 90 83 84 70 21 23 29 53 53 31 35 55 73 83 92 71 75 82 108 102 77 103 109 61 75 65 47 94 51 301 360 366 343 326 291
185 154 115 103 79 72 71 68 76 80 71 77 65 10 27 29 88 112 93 55 49 56 62 55 57 89 88 86 89 73 43 49 64 58 33 56 62 62 82 366 343 374 410 366 299
188 155 161 142 107 74 63 79 70 49 41 56 67 24 18 36 52 60 91 44 25 42 58 51 63 41 59 58 77 97 85 44 60 78 80 123 30 91 131 409 367 382 368 341 335
152 165 147 151 126 92 96 80 57 36 57 70 68 53 19 39 57 80 95 87 48 55 61 66 71 57 105 96 93 112 60 62 63 50 120 123 78 70 252 290 325 357 353 356 366
146 143 141 142 151 117 104 97 83 84 77 76 128 90 67 52 60 83 45 64 72 72 83 94 92 83 122 154 75 75 94 88 48 101 77 94 67 77 264 239 302 364 411 415 387
156 153 131 142 161 133 127 112 97 83 135 149 156 134 158 149 121 96 66 102 132 119 89 84 73 60 79 106 120 116 95 82 102 131 93 82 93 110 209 251 346 380 424 424 379
150 154 159 144 141 106 137 138 125 131 88 87 88 141 73 107 97 57 144 113 133 103 156 121 33 56 73 73 66 86 64 18 74 100 105 83 41 136 123 198 282 308 346 380 374
149 156 163 135 114 134 134 122 103 96 75 16 150 166 175 152 162 97 143 153 139 151 149 164 86 46 92 83 75 85 113 49 84 118 138 142 119 102 170 270 351 372 445 488 435
124 145 100 100 118 131 123 90 96 100 102 34 72 94 179 218 206 134 144 229 190 154 130 102 105 87 38 73 85 71 77 71 94 133 141 170 121 114 237 303 371 433 441 459 435
130 152 111 120 123 108 113 83 90 107 229 89 118 123 117 234 273 142 156 311 222 291 241 153 93 91 98 86 98 89 110 129 125 130 136 205 193 167 338 356 400 400 426 420 397
115 131 117 171 169 131 108 113 124 285 288 263 150 131 184 82 149 187 147 172 162 291 267 183 164 163 118 167 124 152 237 238 185 140 165 206 186 115 278 334 371 406 376 380 389
108 112 122 154 179 141 125 190 287 372 309 204 190 154 116 149 137 163 170 183 253 295 226 274 157 162 121 172 225 290 304 239 214 256 206 103 173 170 214 156 271 289 329 352 371
114 122 130 135 156 144 219 312 405 269 275 277 218 302 281 210 197 192 213 216 167 365 268 231 222 136 180 191 293 298 313 308 226 215 170 170 229 269 219 284 380 395 349 348 322
127 205 182 140 142 199 266 308 395 309 256 268 224 216 259 200 128 175 180 210 190 216 268 195 195 155 127 241 307 342 333 265 226 185 214 195 222 198 231 320 323 318 306 273 245
217 207 197 119 154 199 271 310 346 309 366 315 201 127 158 180 197 195 160 168 194 175 299 220 173 147 166 224 318 260 277 359 388 314 283 236 200 196 233 256 269 269 259 253 215
233 244 189 185 204 236 327 328 218 203 264 232 201 251 230 205 191 190 197 253 174 149 189 190 242 207 221 248 270 344 361 397 332 352 337 290 176 173 133 199 226 236 238 194 145
253 294 170 217 325 345 269 326 202 179 140 194 244 202 221 197 149 179 196 116 190 78 173 162 215 160 220 190 195 289 275 368 351 334 289 289 158 129 81 181 201 202 224 172 100
285 271 193 169 305 305 257 204 194 175 136 210 202 175 192 143 161 109 104 88 122 171 168 177 154 148 125 183 236 250 213 246 272 283 284 292 275 140 187 210 174 175 193 177 128
241 302 326 168 211 208 223 207 181 165 134 170 167 122 137 129 143 158 123 80 85 65 144 206 228 143 102 166 266 328 330 226 268 272 191 195 188 178 161 187 173 177 183 181 171
206 301 283 329 248 253 217 232 184 180 169 136 249 134 189 190 121 109 94 92 55 42 102 115 321 198 162 123 210 205 170 175 215 130 161 100 122 71 219 204 196 212 176 179 143
252 313 332 386 326 162 219 273 200 192 238 158 233 168 169 161 132 218 81 117 96 131 129 178 150 177 265 191 147 167 127 172 215 261 128 130 118 192 216 332 312 252 215 160 136
286 255 252 254 266 352 269 240 229 159 140 104 128 123 141 86 119 62 64 59 62 36 3 64 139 198 122 121 127 133 127 152 186 260 216 257 322 299 286 292 311 319 270 211 143

GFSSW_con_3kmhel_159.txt.gz
Helicity
53 50 56 59 55 50 46 46 50 53 57 61 75 82 90 86 72 11 26 20 19 23 30 16 40 54 42 57 68 61 106 110 100 120 127 129 162 125 123 179 176 142 135 165 174
56 57 52 55 47 56 56 53 48 46 51 61 64 79 129 60 49 29 31 22 20 32 46 58 63 59 64 62 65 80 76 53 77 86 124 141 148 140 161 164 187 196 243 248 229
45 48 58 55 41 48 48 47 45 47 50 54 56 74 107 40 36 40 31 17 24 30 13 11 28 47 71 60 78 67 73 69 91 103 127 146 157 132 184 183 116 144 200 230 243
60 66 69 59 48 48 54 48 38 51 55 58 63 66 77 13 65 66 18 33 52 52 49 46 60 85 103 108 87 87 71 71 89 104 109 146 154 164 169 144 81 142 235 263 268
92 80 76 76 74 71 78 65 60 77 66 73 76 91 -1 47 39 74 82 77 68 65 76 79 88 86 115 117 118 104 111 99 74 78 82 117 137 159 167 151 205 278 291 309 301
167 151 112 86 71 78 68 64 61 73 84 70 71 68 15 36 52 72 87 90 76 72 81 74 87 87 107 107 113 119 107 99 78 82 83 105 133 135 151 155 274 318 338 344 309
154 155 148 136 107 86 76 70 59 65 87 91 54 11 30 43 81 57 75 86 84 102 92 75 76 84 88 95 124 131 102 77 63 81 84 108 126 124 140 166 241 291 339 344 298
130 138 132 130 109 102 88 81 61 58 70 80 60 5 4 55 55 58 81 87 84 94 82 73 80 98 102 126 160 131 115 66 71 91 116 87 54 104 162 241 228 294 334 316 282
137 126 128 117 122 106 99 76 57 52 57 63 65 70 29 62 66 67 74 65 97 141 149 115 102 119 119 129 126 141 103 90 80 73 109 92 79 128 140 173 272 316 335 322 277
147 149 134 129 123 117 89 65 70 69 72 83 136 97 63 88 112 100 62 78 116 144 162 132 115 105 124 105 76 78 88 115 107 119 173 120 55 89 119 176 212 293 307 290 251
143 153 146 144 132 112 103 88 88 70 88 88 130 120 123 97 83 115 120 91 113 152 141 140 109 61 42 85 92 100 94 84 77 89 86 59 62 64 110 154 205 240 250 248 257
118 136 134 111 108 86 80 96 90 79 53 38 40 86 46 89 131 125 147 121 146 140 200 175 102 77 98 94 89 82 74 49 37 50 41 55 48 61 111 99 148 221 226 242 282
125 133 143 107 87 76 77 75 69 60 27 2 77 129 109 120 146 56 168 180 146 160 155 165 119 114 104 115 91 98 99 98 66 51 46 70 37 92 136 155 163 187 204 271 283
96 111 126 108 118 96 77 75 39 34 59 -28 4 66 94 137 134 104 133 218 230 131 160 99 152 189 165 164 105 104 43 63 71 75 77 102 62 90 91 123 158 170 242 309 319
76 81 93 118 115 105 95 54 34 60 222 86 87 55 59 60 136 97 93 196 189 258 223 169 122 63 96 118 134 113 127 84 104 97 101 107 112 86 168 174 158 203 276 357 391
75 76 93 108 108 102 98 69 99 191 285 201 118 90 107 61 90 104 103 109 130 153 233 187 180 139 120 143 97 111 148 163 174 151 121 122 150 41 161 147 146 204 302 396 410
89 100 124 135 140 157 117 150 246 337 295 267 204 133 142 187 160 124 143 133 161 172 140 123 114 185 206 184 185 125 100 127 169 227 208 156 87 124 183 126 98 100 236 328 361
96 124 141 139 148 176 154 289 305 190 237 218 205 186 171 127 80 57 127 136 130 194 168 132 131 52 111 128 172 185 198 227 167 175 151 188 160 168 177 151 69 69 192 326 344
162 225 199 164 131 178 285 255 299 223 209 276 203 178 161 168 131 156 111 103 79 111 124 116 117 61 50 47 49 138 178 142 194 192 193 182 164 116 171 176 154 169 244 339 292
245 213 202 140 140 236 305 277 247 236 214 203 167 148 189 182 170 185 175 153 189 107 110 114 122 54 96 104 135 103 99 195 232 239 197 178 171 166 92 59 66 85 182 219 211
239 240 188 161 172 291 345 355 239 287 288 246 210 223 195 181 176 164 164 192 174 248 193 153 144 123 123 116 116 132 144 156 173 204 215 176 132 126 127 76 53 55 66 125 139
290 309 170 185 325 376 270 326 298 299 294 289 291 274 239 228 197 207 189 200 99 122 180 96 120 104 95 100 112 148 142 127 176 181 237 212 144 208 187 72 -9 -10 16 101 134
228 281 216 184 297 308 318 254 261 297 280 271 240 182 190 156 116 67 87 83 47 16 79 82 133 98 29 72 99 103 68 112 236 288 196 197 154 144 92 79 21 28 12 55 139
257 226 291 224 223 204 171 170 263 213 192 222 230 174 171 131 143 125 117 141 146 103 97 113 94 88 96 112 89 118 174 125 95 122 131 118 113 186 219 159 69 14 105 190 246
300 260 271 273 226 195 230 226 140 177 164 142 168 117 149 130 81 72 85 49 31 47 53 77 90 76 38 24 54 57 61 95 138 115 140 93 94 79 162 129 24 40 167 269 287
286 345 365 340 294 182 110 133 103 94 161 140 108 154 38 60 85 123 106 96 111 80 78 107 111 97 55 24 36 25 43 63 82 85 80 71 77 119 146 86 133 169 220 304 333
356 352 307 265 304 302 180 166 134 71 98 89 88 87 84 75 74 74 77 87 88 109 96 90 118 97 92 62 71 66 38 42 91 125 141 174 151 54 36 102 132 191 282 354 345